Radiation Dose measured at exhaust stack monitor of Fukushima Daiichi Nuclear Power Station
Date,Time,Unit 5 6 shared exhaust cylinders,Wind Direction,Wind Velocity(m/s)
2021/06/13,00:00,3.9,south-southwest,2.9
2021/06/13,00:10,3.9,south-southwest,2.9
2021/06/13,00:20,3.8,south-southwest,3.1
2021/06/13,00:30,3.9,southwest,2.0
2021/06/13,00:40,4.0,west-southwest,1.1
2021/06/13,00:50,3.9,north-northwest,0.6
2021/06/13,01:00,3.7,-,CALM
2021/06/13,01:10,3.8,south-southeast,0.6
2021/06/13,01:20,3.8,south,1.4
2021/06/13,01:30,3.7,south,1.7
2021/06/13,01:40,3.8,south-southeast,2.6
2021/06/13,01:50,3.9,south,3.0
2021/06/13,02:00,3.9,south,2.6
2021/06/13,02:10,3.9,south,2.8
2021/06/13,02:20,3.9,south-southwest,3.1
2021/06/13,02:30,4.1,south-southwest,2.6
2021/06/13,02:40,3.8,south-southwest,2.8
2021/06/13,02:50,3.8,south,2.3
2021/06/13,03:00,4.0,south-southwest,1.5
2021/06/13,03:10,4.0,south-southwest,1.7
2021/06/13,03:20,4.0,south-southwest,2.2
2021/06/13,03:30,4.0,south-southwest,2.2
2021/06/13,03:40,3.9,southwest,2.0
2021/06/13,03:50,3.9,southwest,1.5
2021/06/13,04:00,3.9,southwest,1.5
2021/06/13,04:10,3.9,south-southwest,1.7
2021/06/13,04:20,4.0,south,2.3
2021/06/13,04:30,3.8,south,2.3
2021/06/13,04:40,3.9,south-southwest,2.6
2021/06/13,04:50,3.8,south-southwest,2.0
2021/06/13,05:00,3.8,south-southwest,1.7
2021/06/13,05:10,3.6,southwest,0.9
2021/06/13,05:20,4.0,-,CALM
2021/06/13,05:30,4.0,northwest,0.9
2021/06/13,05:40,3.8,west-northwest,1.2
2021/06/13,05:50,3.8,northwest,1.4
2021/06/13,06:00,3.8,north,1.7
2021/06/13,06:10,3.7,north,1.7
2021/06/13,06:20,4.0,north-northwest,1.7
2021/06/13,06:30,3.9,north-northwest,1.2
2021/06/13,06:40,3.8,west-northwest,0.6
2021/06/13,06:50,3.9,-,CALM
2021/06/13,07:00,3.8,-,CALM
2021/06/13,07:10,3.9,north-northwest,0.6
2021/06/13,07:20,3.7,north-northwest,1.2
2021/06/13,07:30,3.9,north-northwest,1.7
2021/06/13,07:40,3.9,north-northwest,2.0
2021/06/13,07:50,3.9,north-northwest,2.2
2021/06/13,08:00,3.7,northwest,2.2
2021/06/13,08:10,3.9,north-northwest,2.3
2021/06/13,08:20,4.0,north-northwest,2.3
2021/06/13,08:30,4.0,north,2.0
2021/06/13,08:40,4.0,north,1.5
2021/06/13,08:50,3.8,north,1.9
2021/06/13,09:00,4.0,north-northeast,2.5
2021/06/13,09:10,4.0,northeast,2.0
2021/06/13,09:20,3.9,northeast,2.0
2021/06/13,09:30,3.8,northeast,1.5
2021/06/13,09:40,4.0,northeast,1.5
2021/06/13,09:50,3.8,east-northeast,0.9
2021/06/13,10:00,3.9,east,0.9
2021/06/13,10:10,3.9,east,1.2
2021/06/13,10:20,3.9,east-southeast,1.4
2021/06/13,10:30,3.9,southeast,2.2
2021/06/13,10:40,4.1,south-southeast,3.0
2021/06/13,10:50,3.8,south-southeast,3.5
2021/06/13,11:00,3.9,south-southeast,2.9
2021/06/13,11:10,3.8,south-southeast,3.4
2021/06/13,11:20,3.9,south-southeast,3.5
2021/06/13,11:30,3.8,south-southeast,3.0
2021/06/13,11:40,4.0,south-southeast,4.8
2021/06/13,11:50,4.0,south,5.2
2021/06/13,12:00,4.0,south-southeast,5.1
2021/06/13,12:10,4.0,south-southeast,5.9
2021/06/13,12:20,3.8,south-southeast,6.1
2021/06/13,12:30,4.0,south-southeast,7.7
2021/06/13,12:40,4.0,south-southeast,9.3
2021/06/13,12:50,3.9,south-southeast,8.8
2021/06/13,13:00,3.8,south,6.9
2021/06/13,13:10,3.9,south-southeast,8.0
2021/06/13,13:20,3.9,south,8.9
2021/06/13,13:30,3.8,south-southeast,9.8
2021/06/13,13:40,4.0,south,7.5
2021/06/13,13:50,3.8,south,7.0
2021/06/13,14:00,3.9,south,7.9
2021/06/13,14:10,3.9,south,8.4
2021/06/13,14:20,3.8,south-southeast,8.5
2021/06/13,14:30,3.7,south,8.5
2021/06/13,14:40,3.9,south,8.2
2021/06/13,14:50,3.8,south,8.7
2021/06/13,15:00,4.0,south,9.2
2021/06/13,15:10,3.9,south-southeast,9.3
2021/06/13,15:20,4.1,south,9.7
2021/06/13,15:30,3.9,south,9.9
2021/06/13,15:40,3.8,south,9.8
2021/06/13,15:50,3.8,south-southeast,9.3
2021/06/13,16:00,3.8,south,8.0
2021/06/13,16:10,4.0,south,7.0
2021/06/13,16:20,4.0,south,7.4
2021/06/13,16:30,4.0,south,7.5
2021/06/13,16:40,3.9,south,6.8
2021/06/13,16:50,3.9,south,7.4
2021/06/13,17:00,3.9,south,7.7
2021/06/13,17:10,3.9,south,7.3
2021/06/13,17:20,3.9,south,7.1
2021/06/13,17:30,3.8,south,7.0
2021/06/13,17:40,3.8,south,6.8
2021/06/13,17:50,3.9,south,7.6
2021/06/13,18:00,3.8,south,8.3
2021/06/13,18:10,3.9,south,7.4
2021/06/13,18:20,3.8,south,6.8
2021/06/13,18:30,4.0,south,6.3
2021/06/13,18:40,3.9,south,5.1
2021/06/13,18:50,3.9,south,4.7
2021/06/13,19:00,3.8,south,5.1
2021/06/13,19:10,4.0,south,5.7
2021/06/13,19:20,4.0,south,4.0
2021/06/13,19:30,4.0,south,3.4
2021/06/13,19:40,3.9,south-southwest,3.0
2021/06/13,19:50,3.8,south,2.6
2021/06/13,20:00,4.1,south-southwest,2.3
2021/06/13,20:10,3.9,south-southwest,2.8
2021/06/13,20:20,3.9,southwest,2.6
2021/06/13,20:30,4.0,south-southwest,0.8
2021/06/13,20:40,3.8,south-southeast,2.6
2021/06/13,20:50,3.9,south,3.0
2021/06/13,21:00,3.9,south-southwest,2.3
2021/06/13,21:10,3.9,south-southwest,1.4
2021/06/13,21:20,3.9,southwest,1.5
2021/06/13,21:30,3.9,west-southwest,1.7
2021/06/13,21:40,3.9,west,1.1
2021/06/13,21:50,3.8,west-northwest,1.4
2021/06/13,22:00,4.0,northwest,1.2
2021/06/13,22:10,3.8,north-northwest,1.1
2021/06/13,22:20,3.8,north,1.7
2021/06/13,22:30,3.8,north,1.2
2021/06/13,22:40,4.0,northwest,1.2
2021/06/13,22:50,3.8,northwest,1.7
2021/06/13,23:00,3.8,northwest,1.9
2021/06/13,23:10,4.0,northwest,1.9
2021/06/13,23:20,3.9,northwest,1.4
2021/06/13,23:30,3.9,north-northwest,1.7
2021/06/13,23:40,3.9,north-northwest,1.7
2021/06/13,23:50,3.9,northwest,1.2
